• In Hungary
  • List of Countries
  • For 7 days
  • Water Temperature
  • Satellite Maps
  • Weather Map
  • News
  • Weather Widgets
  • user-avatar
    Login

    Hourly Weather Salem

    Today, 18 December, Monday

    Time Temperature Precipitation Wind Pressure Humidity
    00:00 +7°C° 0 mm 2 mps 760 mmHg 89%
    01:00 +7°C° 0 mm 3 mps 760 mmHg 89%
    02:00 +7°C° 0.1 mm 3 mps 760 mmHg 88%
    03:00 +8°C° 0.1 mm 3 mps 760 mmHg 87%
    04:00 +8°C° 0.1 mm 3 mps 760 mmHg 86%
    05:00 +8°C° 0.1 mm 3 mps 760 mmHg 86%
    06:00 +8°C° 0.1 mm 3 mps 760 mmHg 87%
    07:00 +9°C° 0.1 mm 3 mps 761 mmHg 88%
    08:00 +9°C° 0.2 mm 3 mps 761 mmHg 89%
    09:00 +9°C° 0.2 mm 3 mps 761 mmHg 89%
    10:00 +9°C° 0.2 mm 3 mps 761 mmHg 89%
    11:00 +9°C° 0.2 mm 3 mps 761 mmHg 90%
    12:00 +9°C° 0.2 mm 3 mps 761 mmHg 90%
    13:00 +10°C° 0.2 mm 3 mps 760 mmHg 90%
    14:00 +10°C° 0.1 mm 2 mps 760 mmHg 90%
    15:00 +10°C° 0.1 mm 2 mps 760 mmHg 90%
    16:00 +10°C° 0.1 mm 2 mps 759 mmHg 90%
    17:00 +10°C° 0.1 mm 3 mps 759 mmHg 90%
    18:00 +10°C° 0.1 mm 3 mps 759 mmHg 91%
    19:00 +10°C° 0.1 mm 3 mps 758 mmHg 91%
    20:00 +10°C° 0.1 mm 3 mps 758 mmHg 91%
    21:00 +10°C° 0.1 mm 3 mps 758 mmHg 91%
    22:00 +10°C° 0.1 mm 3 mps 758 mmHg 91%
    23:00 +10°C° 0.2 mm 3 mps 757 mmHg 91%

    Tomorrow, 19 December, Tuesday

    Time Temperature Precipitation Wind Pressure Humidity
    00:00 +10°C° 0.2 mm 4 mps 757 mmHg 91%
    01:00 +10°C° 0.2 mm 4 mps 756 mmHg 91%
    02:00 +10°C° 0.5 mm 4 mps 755 mmHg 91%
    03:00 +9°C° 0.5 mm 5 mps 754 mmHg 91%
    04:00 +9°C° 0.5 mm 5 mps 753 mmHg 91%
    05:00 +9°C° 0.7 mm 6 mps 752 mmHg 90%
    06:00 +9°C° 0.7 mm 6 mps 751 mmHg 89%
    07:00 +9°C° 0.7 mm 7 mps 750 mmHg 88%
    08:00 +9°C° 2.2 mm 7 mps 750 mmHg 88%
    09:00 +9°C° 2.2 mm 7 mps 749 mmHg 89%
    10:00 +9°C° 2.2 mm 8 mps 749 mmHg 89%
    11:00 +8°C° 2.9 mm 7 mps 749 mmHg 89%
    12:00 +7°C° 2.9 mm 6 mps 749 mmHg 90%
    13:00 +6°C° 2.9 mm 5 mps 749 mmHg 90%
    14:00 +6°C° 0.8 mm 5 mps 750 mmHg 88%
    15:00 +6°C° 0.8 mm 4 mps 751 mmHg 87%
    16:00 +5°C° 0.8 mm 3 mps 752 mmHg 85%
    17:00 +5°C° 0.4 mm 3 mps 753 mmHg 86%
    18:00 +5°C° 0.4 mm 3 mps 753 mmHg 87%
    19:00 +4°C° 0.4 mm 3 mps 754 mmHg 88%
    20:00 +4°C° 0.4 mm 3 mps 754 mmHg 87%
    21:00 +4°C° 0.4 mm 3 mps 755 mmHg 87%
    22:00 +4°C° 0.4 mm 3 mps 755 mmHg 87%
    23:00 +4°C° 0.3 mm 3 mps 755 mmHg 87%

    Day after tomorrow, 20 December, Wednesday

    Time Temperature Precipitation Wind Pressure Humidity
    00:00 +4°C° 0.3 mm 3 mps 756 mmHg 87%
    01:00 +4°C° 0.3 mm 3 mps 756 mmHg 88%
    02:00 +3°C° 0.2 mm 3 mps 756 mmHg 88%
    03:00 +3°C° 0.2 mm 3 mps 757 mmHg 88%
    04:00 +3°C° 0.2 mm 3 mps 757 mmHg 88%
    05:00 +3°C° 0.1 mm 2 mps 758 mmHg 89%
    06:00 +3°C° 0.1 mm 2 mps 759 mmHg 90%
    07:00 +3°C° 0.1 mm 2 mps 760 mmHg 90%
    08:00 +4°C° 0 mm 2 mps 761 mmHg 88%
    09:00 +6°C° 0 mm 1 mps 762 mmHg 86%
    10:00 +6°C° 0 mm 1 mps 763 mmHg 84%
    11:00 +7°C° 0 mm 1 mps 763 mmHg 79%
    12:00 +8°C° 0 mm 1 mps 763 mmHg 73%
    13:00 +9°C° 0 mm 1 mps 764 mmHg 68%
    14:00 +8°C° 0 mm 1 mps 765 mmHg 71%
    15:00 +7°C° 0 mm 0 mps 765 mmHg 74%
    16:00 +6°C° 0 mm 0 mps 766 mmHg 77%
    17:00 +5°C° 0 mm 0 mps 766 mmHg 81%
    18:00 +5°C° 0 mm 1 mps 767 mmHg 84%
    19:00 +4°C° 0 mm 1 mps 767 mmHg 87%
    20:00 +3°C° 0 mm 1 mps 768 mmHg 88%
    21:00 +3°C° 0 mm 1 mps 768 mmHg 89%
    22:00 +3°C° 0 mm 1 mps 768 mmHg 90%
    23:00 +2°C° 0 mm 1 mps 769 mmHg 90%

    21 December, Thursday

    Time Temperature Precipitation Wind Pressure Humidity
    00:00 +2°C° 0 mm 1 mps 769 mmHg 90%
    01:00 +2°C° 0 mm 1 mps 769 mmHg 91%
    02:00 +1°C° 0 mm 1 mps 769 mmHg 90%
    03:00 +1°C° 0 mm 1 mps 769 mmHg 90%
    04:00 +1°C° 0 mm 1 mps 769 mmHg 90%
    05:00 +1°C° 0 mm 1 mps 769 mmHg 90%
    06:00 +1°C° 0 mm 1 mps 769 mmHg 89%
    07:00 +1°C° 0 mm 1 mps 769 mmHg 89%
    08:00 +2°C° 0 mm 1 mps 769 mmHg 84%
    09:00 +3°C° 0 mm 1 mps 769 mmHg 79%
    10:00 +5°C° 0 mm 1 mps 769 mmHg 74%
    11:00 +6°C° 0 mm 1 mps 768 mmHg 70%
    12:00 +7°C° 0 mm 1 mps 767 mmHg 66%
    13:00 +8°C° 0 mm 1 mps 767 mmHg 62%
    14:00 +7°C° 0 mm 1 mps 766 mmHg 66%
    15:00 +5°C° 0 mm 0 mps 766 mmHg 70%
    16:00 +5°C° 0 mm 0 mps 766 mmHg 75%
    17:00 +4°C° 0 mm 0 mps 766 mmHg 78%
    18:00 +3°C° 0 mm 0 mps 766 mmHg 81%
    19:00 +2°C° 0 mm 0 mps 766 mmHg 84%
    20:00 +1°C° 0 mm 0 mps 766 mmHg 84%
    21:00 +1°C° 0 mm 0 mps 766 mmHg 83%
    22:00 +1°C° 0 mm 0 mps 766 mmHg 83%
    23:00 +1°C° 0 mm 0 mps 766 mmHg 82%

    22 December, Friday

    Time Temperature Precipitation Wind Pressure Humidity
    00:00 +1°C° 0 mm 0 mps 766 mmHg 82%
    01:00 +1°C° 0 mm 0 mps 766 mmHg 81%
    02:00 +1°C° 0 mm 0 mps 766 mmHg 81%
    03:00 +1°C° 0 mm 0 mps 766 mmHg 80%
    04:00 +1°C° 0 mm 0 mps 766 mmHg 80%
    05:00 +1°C° 0 mm 0 mps 766 mmHg 80%
    06:00 +1°C° 0 mm 0 mps 766 mmHg 80%
    07:00 +1°C° 0 mm 0 mps 767 mmHg 80%
    08:00 +2°C° 0 mm 0 mps 767 mmHg 76%
    09:00 +3°C° 0 mm 0 mps 767 mmHg 72%
    10:00 +4°C° 0 mm 0 mps 767 mmHg 68%
    11:00 +5°C° 0 mm 0 mps 767 mmHg 65%
    12:00 +7°C° 0 mm 1 mps 766 mmHg 62%
    13:00 +8°C° 0 mm 1 mps 766 mmHg 59%
    14:00 +8°C° 0 mm 1 mps 766 mmHg 64%
    15:00 +7°C° 0 mm 1 mps 767 mmHg 68%
    16:00 +6°C° 0 mm 1 mps 767 mmHg 73%
    17:00 +6°C° 0 mm 1 mps 767 mmHg 75%
    18:00 +5°C° 0 mm 1 mps 768 mmHg 78%
    19:00 +4°C° 0 mm 1 mps 768 mmHg 80%
    20:00 +4°C° 0 mm 1 mps 768 mmHg 80%
    21:00 +4°C° 0 mm 1 mps 769 mmHg 80%
    22:00 +4°C° 0 mm 1 mps 769 mmHg 81%
    23:00 +3°C° 0 mm 2 mps 769 mmHg 80%

    23 December, Saturday

    Time Temperature Precipitation Wind Pressure Humidity
    00:00 +2°C° 0 mm 2 mps 770 mmHg 80%
    01:00 +2°C° 0 mm 2 mps 770 mmHg 80%
    02:00 +2°C° 0 mm 2 mps 770 mmHg 78%
    03:00 +1°C° 0 mm 2 mps 770 mmHg 75%
    04:00 0°C° 0 mm 3 mps 770 mmHg 73%
    05:00 0°C° 0 mm 3 mps 771 mmHg 71%
    06:00 -1°C° 0 mm 3 mps 771 mmHg 69%
    07:00 -1°C° 0 mm 3 mps 771 mmHg 67%
    08:00 0°C° 0 mm 3 mps 771 mmHg 62%
    09:00 0°C° 0 mm 4 mps 772 mmHg 57%
    10:00 +1°C° 0 mm 4 mps 772 mmHg 51%
    11:00 +3°C° 0 mm 4 mps 771 mmHg 49%
    12:00 +4°C° 0 mm 4 mps 771 mmHg 46%
    13:00 +5°C° 0 mm 4 mps 771 mmHg 44%
    14:00 +4°C° 0 mm 4 mps 770 mmHg 46%
    15:00 +3°C° 0 mm 4 mps 770 mmHg 48%
    16:00 +1°C° 0 mm 4 mps 770 mmHg 50%
    17:00 0°C° 0 mm 4 mps 770 mmHg 51%
    18:00 -1°C° 0 mm 4 mps 770 mmHg 52%
    19:00 -1°C° 0 mm 3 mps 770 mmHg 53%
    20:00 -1°C° 0 mm 3 mps 770 mmHg 54%
    21:00 -1°C° 0 mm 3 mps 770 mmHg 54%
    22:00 -1°C° 0 mm 3 mps 770 mmHg 54%
    23:00 -1°C° 0 mm 3 mps 769 mmHg 55%
    Show more